Regional Weather Roundup
Issued by NWS

Home | Current Version | Previous Version | Text Only | Print | Product List | Glossary On
Versions: 1 2 3 4 5 6 7 8 9 10 11 12 13 14 15 16 17 18 19 20 21 22 23 24 25 26 27 28 29 30 31 32 33 34 35 36 37 38 39 40 41 42 43 44 45 46 47 48 49 50
000
ASUS43 KDMX 272207
RWRIA

WEATHER ROUNDUP FOR IOWA
NATIONAL WEATHER SERVICE DES MOINES IA
500 PM CDT WED AUG 27 2014

NOTE: "FAIR" INDICATES FEW OR NO CLOUDS BELOW 12,000 FEET WITH NO
SIGNIFICANT WEATHER AND/OR OBSTRUCTIONS TO VISIBILITY.

* - THESE STATIONS ARE NOT NWS STATIONS...THUS NOT UNDER NWS
QUALITY CONTROL.  THEY ALSO DO NOT REPORT WEATHER SUCH
AS PRECIPITATION OR FOG.

IAZ001>003-012>014-020>022-031>034-043>046-272300-
   NORTHWEST IOWA

CITY           SKY/WX    TMP DP  RH WIND       PRES   REMARKS
CARROLL *      MOSUNNY   72  68  88 E8        30.09F
DENISON *      CLOUDY    70  70 100 NE10      30.07F
LE MARS *      CLOUDY    73  68  83 S5        30.10F
ORANGE CITY *  CLOUDY    73  66  78 CALM      30.11F
SHELDON *      CLOUDY    72  64  78 SE6       30.11F
SIOUX CITY     LGT RAIN  72  68  87 SE5       30.09F
SPENCER        CLOUDY    73  64  73 SE10      30.12F
STORM LAKE *   CLOUDY    70  70 100 SE8       30.11F
$$

IAZ055>058-069>071-079>083-090>094-272300-
   SOUTHWEST IOWA

CITY           SKY/WX    TMP DP  RH WIND       PRES   REMARKS
ATLANTIC *     MOSUNNY   72  70  94 CALM      30.07R
AUDUBON *      LGT RAIN  73  70  88 E8        30.09F
CLARINDA *     SUNNY     75  70  83 SE6       30.09F
COUNCIL BLFS * MOSUNNY   75  73  94 SW6       30.07R
CRESTON *      PTSUNNY   73  70  88 E6        30.10S
HARLAN  *      MOSUNNY   72  70  94 NE7       30.11S
LAMONI         CLOUDY    75  70  84 VRB3      30.09F
RED OAK *      CLOUDY    75  72  88 S8        30.08S
SHENANDOAH *   CLOUDY    75  72  88 S5        30.08S
$$

IAZ047>049-059>061-072>074-084-272300-
   CENTRAL IOWA

CITY           SKY/WX    TMP DP  RH WIND       PRES   REMARKS
AMES           PTSUNNY   75  67  76 E5        30.10F
ANKENY *       MOSUNNY   75  68  78 NE6       30.09F
CHARITON *     SUNNY     73  70  88 E7        30.09F
DES MOINES     CLOUDY    76  67  73 E7        30.08F
GRINNELL*      PTSUNNY   75  66  73 E5        30.11F
KNOXVILLE *    MOSUNNY   75  66  73 E8        30.08F
MARSHALLTOWN   PTSUNNY   74  64  71 NE7       30.10F
PELLA *        PTSUNNY   77  68  73 E3        30.11F
PERRY *          N/A     73  68  83 E7        30.09F
$$

IAZ004>006-015-016-023>025-035-036-272300-
   NORTH CENTRAL IOWA

CITY           SKY/WX    TMP DP  RH WIND       PRES   REMARKS
ALGONA *       SUNNY     73  64  73 SE7       30.13F
CLARION *      SUNNY     73  64  73 E6        30.12F
ESTHERVILLE    CLOUDY    71  62  73 E8        30.13F
FORT DODGE *   PTSUNNY   73  64  73 SE6       30.12F
MASON CITY     PTSUNNY   74  59  59 SE8       30.14F
FOREST CITY *  SUNNY     73  61  64 E6        30.13F
IOWA FALLS *     N/A     73  61  64 CALM      30.13F
$$

IAZ007>011-017>019-026>030-037>042-050>054-066-272300-
   NORTHEAST IOWA

CITY           SKY/WX    TMP DP  RH WIND       PRES   REMARKS
CEDAR RAPIDS   PTSUNNY   77  61  57 NE7       30.10F
CHARLES CITY * SUNNY     73  59  60 E6        30.14F
CLINTON *      CLOUDY    73  63  68 NE9       30.13F
DECORAH *      MOSUNNY   72  61  68 VRB6      30.14F
DUBUQUE        CLOUDY    75  59  57 NE8       30.14F
MONTICELLO *   SUNNY     77  61  57 NE6       30.11F
OELWEIN *      MOSUNNY   75  61  60 E6        30.13F
WATERLOO       PTSUNNY   75  59  57 E7        30.11F
$$

IAZ064-065-067-068-078-272300-
   EAST CENTRAL IOWA

CITY           SKY/WX    TMP DP  RH WIND       PRES   REMARKS
DAVENPORT      CLOUDY    74  62  66 NE9       30.10F
IOWA CITY      PTSUNNY   77  66  68 NE8       30.10F
MT. PLEASANT * PTSUNNY   79  68  69 E5        30.09F HX  81
MUSCATINE *    SUNNY     79  66  65 NE9       30.09F HX  81
QUAD CITIES    CLOUDY    77  64  64 NE8       30.09F
$$

IAZ062-063-075>077-085>089-095>099-272300-
   SOUTHEAST IOWA

CITY           SKY/WX    TMP DP  RH WIND       PRES   REMARKS
BURLINGTON     CLOUDY    78  69  73 NE5       30.08F HX  80
FAIRFIELD *    MOSUNNY   77  68  73 E8        30.09F
FORT MADISON * SUNNY     79  72  78 CALM      30.10F HX  82
KEOKUK *       MOSUNNY   79  72  78 CALM      30.08F HX  82
OSKALOOSA *      N/A     75  68  78 CALM      30.10F
CENTERVILLE *  MOSUNNY   77  72  83 E5        30.09F
OTTUMWA        PTSUNNY   77  68  73 NE7       30.08F
WASHINGTON *   SUNNY     77  70  78 E6        30.09F
$$

ABBREVIATIONS USED IN REMARKS
   TC - TEMPERATURES IN CELSIUS
  WCI - WIND CHILL INDEX
   HX - HEAT INDEX
  VSB - VISIBILITY
$$



USA.gov is the U.S. government's official web portal to all federal, state and local government web resources and services.